Home   Weather   Vreden   Past weeks

Flag for Germany Past Weather in Vreden, North Rhine-Westphalia, Germany — Yesterday and Last 2 Weeks

Now
32 °F

Low clouds.


Feels Like: 29 °F
Forecast: 28 / 33 °F
Wind: 3 mph from Southwest

Location: Twenthe

Current Time: Jan 23, 2017 at 8:30:30 pm

Latest Report: Jan 23, 2017 at 7:00 pm


Visibility: 2 mi

Pressure: 30.32 "Hg

Humidity: 92%

Dew Point: 30 °F

Location of VredenLocation

Past Weather in Vreden — Graph

°F

Vreden Temperature Yesterday

Maximum temperature yesterday: 36 °F (at 2:00 pm)
Minimum temperature yesterday: 16 °F (at 11:00 pm)
Average temperature yesterday: 24 °F

High & Low Weather Summary for the Past Weeks

 TemperatureHumidityPressure
High48 °F (Jan 11, 2:00 pm)100% (Jan 8, 8:00 pm)30.75 "Hg (Jan 8, 8:00 pm)
Low14 °F (Jan 23, 3:00 am)48% (Jan 20, 2:00 pm)28.97 "Hg (Jan 13, 2:00 am)
Average31 °F90%30.19 "Hg
* Reported Jan 8 7:00 pm — Jan 23 7:00 pm, Vreden, Weather by CustomWeather, © 2017

Note: Actual official high and low records may vary slightly from our data, if they occured in-between our weather recording intervals... More about our weather records

Advertising

Vreden Weather History for the Previous 24 Hours

Scroll right to see more
 ConditionsComfort  
Time TempWeatherWind HumidityBarometerVisibility
7:00 pm
Mon, Jan 23
32 °FLow clouds.3 mph92%30.32 "Hg2 mi
6:00 pm32 °FOvercast.2 mph92%30.32 "Hg2 mi
5:00 pm31 °FFog.2 mph90%30.32 "Hg2 mi
4:00 pm32 °FFog.3 mph90%30.32 "Hg2 mi
3:00 pm32 °FFog.2 mph88%30.33 "Hg2 mi
2:00 pm32 °FFog.1 mph90%30.34 "Hg2 mi
1:00 pm31 °FOvercast.1 mph92%30.35 "Hg2 mi
12:00 pm29 °FOvercast.2 mph93%30.36 "Hg2 mi
11:00 am28 °FOvercast.1 mph94%30.36 "Hg2 mi
10:00 am26 °FOvercast.1 mph94%30.35 "Hg2 mi
9:00 am24 °FFog.1 mph94%30.35 "Hg2 mi
8:00 am23 °FOvercast.1 mph92%30.34 "Hg3 mi
7:00 am22 °FFog.No wind94%30.34 "Hg3 mi
6:00 am21 °FFog.1 mph94%30.33 "Hg2 mi
5:00 am19 °FLow clouds.No wind95%30.33 "Hg1 mi
4:00 am18 °FIce fog.1 mph95%30.33 "Hg0 mi
3:00 am14 °FFog.3 mph90%30.34 "Hg2 mi
2:00 am15 °FClear.1 mph96%30.34 "Hg1 mi
1:00 am16 °FPassing clouds.1 mph95%30.33 "Hg1 mi
12:00 am17 °FPassing clouds.No wind96%30.33 "Hg0 mi
11:00 pm
Sun, Jan 22
16 °FOvercast.1 mph96%30.33 "Hg1 mi
10:00 pm16 °FClear.1 mph96%30.33 "Hg0 mi
9:00 pm18 °FClear.No wind96%30.33 "Hg1 mi
8:00 pm22 °FFog.1 mph99%30.32 "Hg2 mi
Weather by CustomWeather, © 2017

See weather overviewHow to use our weather pages